Simultaneous Nadir Overpasses (SNOs) Predictions

Prediction of SNOs between AQUA and NOAA-19 Satellite Orbit:

Table of predicted SNOs for the next 14.0 days since TLE Epoch: 11/5/2014
Index Date (AQUA) Time (AQUA) Lat,Lon (AQUA) SZA (AQUA ) Date (NOAA-19) Time (NOAA-19) Lat,Lon (NOAA-19) SZA (NOAA-19 ) Distance(km) Time Diff (sec)
1 11/07/2014 18:13:36 -78.76, 64.23 84.35 11/07/2014 18:12:58 -78.77, 64.19 84.34 1.07 38
2 11/07/2014 19:02:55 78.42,-126.32 95.23 11/07/2014 19:03:50 78.43,-126.35 95.23 0.83 55
3 11/09/2014 22:57:54 -78.88, -7.48 83.57 11/09/2014 22:56:42 -78.87, -7.41 83.56 1.89 72
4 11/09/2014 23:47:14 78.59, 161.76 96.07 11/09/2014 23:47:35 78.59, 161.70 96.08 1.35 21
5 11/12/2014 04:31:32 78.73, 89.94 96.86 11/12/2014 04:31:19 78.72, 89.94 96.86 0.24 13
6 11/14/2014 09:15:50 78.88, 18.00 97.65 11/14/2014 09:15:04 78.89, 17.89 97.68 2.66 46
7 11/14/2014 10:05:08 -78.55,-172.50 82.78 11/14/2014 10:05:58 -78.54,-172.53 82.79 0.54 50
8 11/16/2014 14:49:24 -78.64, 115.96 82.10 11/16/2014 14:49:41 -78.63, 116.05 82.12 2.11 17
9 11/18/2014 19:33:41 -78.78, 44.09 81.37 11/18/2014 19:33:26 -78.78, 44.10 81.37 0.20 15




NCC Satellite Simultaneous Nadir Overpasses (SNOs) Prediction Service
